FENGYUN 1C DEB, 37593

Orbit data source: Space-Track

FENGYUN 1C DEB, 37593 is space debris in SSO originally from a launch on Mon, 10 May 1999 UTC launched from the Taiyaun Space Center, China (TSC). Fengyun 1C debris stems from the Chinese weather satellite Fengyun-1C, which was intentionally destroyed by a Chinese anti-satellite missile in 2007. This event dramatically increased the amount of space debris, with thousands of trackable fragments posing hazards to satellites and human spaceflight. The Fengyun 1C debris cloud has become a focal point in discussions about space sustainability and the need for international regulations to prevent the creation of new debris.

Loading next visibility...
Identifier
37593, 1999-025EKM
Orbit
SSO
Country
Flag of CNCN / PRC
Related business
Manufacturer
Unknown
Mission
Spacecraft
Bus & Motor
Unknown
Mass
Unknown
Launch date (UTC)
1999-05-10 (27 years ago)
Launch vehicle
Unknown
Launch site
Taiyaun Space Center, China (TSC)
Object type
Payload
Rocket body
Debris
Shape & HBR
Unknown shape, 0.1 m
Radar Cross Section
Medium (>0.1 m² and <1 m²)

Expand to show TLE details & history
Last TLE update: 1 week ago

TLE from 1 week ago
0 FENGYUN 1C DEB
1 37593U 99025EKM 26228.51695992  .00001514  00000-0  45446-3 0  9995
2 37593  99.0004 122.5730 0147343 110.7206  12.6310 14.38213981896668
Epoch: 2026-08-16T12:24Z
TLE epoch observation values (Epoch: 2026-08-16T12:24:25.337Z)
Latitude
55.33311°
Longitude
164.72202°
Altitude
670.911 km
Speed
7.581 km/s
True Right ascension
21h 02m 57s
True Declination
55° 10' 12"
Sunlit
Object was in daylight at epoch
Visualization orbit readout
Latitude
Unknown
Longitude
Unknown
Altitude
Unknown
Speed
Unknown
Apparent Right ascension
Unknown
Apparent Declination
Unknown
Sunlit
N/A
Visualization observer readout
Local Sidereal Time
11:35:12
Azimuth
Unknown
Elevation
Unknown
Doppler factor
Unknown
Orbital elements
Apogee altitude
866.752 km
Perigee altitude
656.355 km
Semi-major axis
7,139.69 km
Eccentricity
0.01473
Inclination
99.0004°
RAAN
122.573°
Arg. of periapsis
110.7206°
True anomaly
13.00696°
Mean anomaly
12.631°
Eccentric anomaly
12.8183°
Mean motion
3.59769 °/min
Orbital period
100.06 mins
BSTAR
0.00045446
Loading maneuver chart data...
Computing Atmospheric mass density...
Loading historical data...
Loading historical data...
Loading historical data...
Loading historical data...
Loading historical data...
Loading historical data...
Loading historical data...

Documentation

Showing up to 5 results
|